CW9533 Torre Faro Messina IT current weather conditions

sailwx.info

Wind from 360 at 4 knots gusting 8

Dewpoint -8771.2° C

Last reported at 2017-Nov-22 20:07 UTC.
Time now 2017-Nov-22 20:48 UTC

Location: N 38°16' E 015°39'.
View on Google Maps.

See reports from other nearby stations

  
Tides and Currents Weather Stations Pressure Air Temp Water Temp Dewpoint Dewpoint Depression Visibility Wind Speed Wind Dir Waves Ship Positions
date/time (UTC)wind fromknots sea level pressurealtimeterstation pressurevisibilityair tempwater tempwave heightnotes
2017-Nov-22 20:07 360 4 gusting 8
2017-Nov-22 19:52 202 4 gusting 9 16.1
2017-Nov-22 19:37 235 3 gusting 8
2017-Nov-22 19:07 223 1 gusting 7 16.7
2017-Nov-22 18:52 232 2 gusting 6 16.7
2017-Nov-22 18:37 222 2 gusting 6 16.7
2017-Nov-22 18:22 232 2 gusting 6 16.7
2017-Nov-22 18:07 241 1 gusting 6 16.7
2017-Nov-22 17:52 242 16.7
2017-Nov-22 17:37 242 16.7
2017-Nov-22 17:22 242 16.7
2017-Nov-22 17:07 242 16.7
2017-Nov-22 16:52 242
2017-Nov-22 16:37 242 2 gusting 6 17.2
2017-Nov-22 16:07 252 17.2
2017-Nov-22 15:52 251 17.2
2017-Nov-22 15:37 254 17.2
2017-Nov-22 15:21 240 17.8
2017-Nov-22 15:07 229
2017-Nov-22 14:51 232 0 gusting 9 17.8
2017-Nov-22 14:36 194 2 gusting 8 17.8
2017-Nov-22 14:21 247 1 gusting 10 18.3
2017-Nov-22 14:06 218 2 gusting 7 18.9
2017-Nov-22 13:51 217 3 gusting 9
2017-Nov-22 13:36 202 3 gusting 9 18.9
2017-Nov-22 13:21 230 0 gusting 6 19.4
2017-Nov-22 13:06 244 2 gusting 6 19.4
2017-Nov-22 12:51 217 0 gusting 6 20.0
2017-Nov-22 12:36 210 0 gusting 8
2017-Nov-22 12:21 226 20.0
2017-Nov-22 12:06 325 20.0
2017-Nov-22 11:51 325 20.0
2017-Nov-22 11:36 360 19.4
2017-Nov-22 11:21 360 20.0
2017-Nov-22 11:06 005 19.4
2017-Nov-22 10:51 005
2017-Nov-22 10:36 360 18.9
2017-Nov-22 10:21 355 19.4
2017-Nov-22 10:06 248 20.6
2017-Nov-22 09:51 248 20.6
2017-Nov-22 09:36 248
2017-Nov-22 09:21 248 20.0
2017-Nov-22 09:06 248 19.4
2017-Nov-22 08:51 248 19.4
2017-Nov-22 08:36 248 19.4
2017-Nov-22 08:21 248
2017-Nov-22 08:06 248 18.3
2017-Nov-22 07:51 248 18.3
2017-Nov-22 07:36 248 16.7
2017-Nov-22 07:21 248 15.6
2017-Nov-22 07:06 248
2017-Nov-22 06:51 248 15.6
2017-Nov-22 06:35 248 15.6
2017-Nov-22 06:20 248 15.6
2017-Nov-22 06:06 248 15.6
2017-Nov-22 05:51 247
2017-Nov-22 05:35 247 16.1
2017-Nov-22 05:21 249 15.6
2017-Nov-22 05:05 250 15.6
2017-Nov-22 04:50 250 15.6
2017-Nov-22 04:35 249
2017-Nov-22 04:20 250 15.6
2017-Nov-22 04:05 250
2017-Nov-22 03:50 249 15.6
2017-Nov-22 03:35 250 15.6
2017-Nov-22 03:20 250 15.6
2017-Nov-22 03:05 244 16.1
2017-Nov-22 02:50 244
2017-Nov-22 02:35 226 16.1
2017-Nov-22 02:20 226 16.7
2017-Nov-22 02:05 226 16.7
2017-Nov-22 01:50 225 16.7
2017-Nov-22 01:35 219
2017-Nov-22 01:20 221 16.7
2017-Nov-22 01:05 241 16.7
2017-Nov-22 00:50 250
2017-Nov-22 00:35 250 16.1
2017-Nov-22 00:20 250
2017-Nov-21 23:20 260 16.1
2017-Nov-21 23:05 252 15.6
2017-Nov-21 22:50 252 15.6
2017-Nov-21 22:35 252 15.6
2017-Nov-21 22:20 252 15.6
2017-Nov-21 22:05 252 15.6
2017-Nov-21 21:50 252 15.6
2017-Nov-21 21:35 252 16.1
2017-Nov-21 21:20 252
2017-Nov-21 21:05 205 16.1
2017-Nov-21 20:50 117 16.1
2017-Nov-21 20:35 115 16.1
2017-Nov-21 20:20 115 16.7
2017-Nov-21 20:05 114
2017-Nov-21 19:50 085 16.7
2017-Nov-21 19:35 084
2017-Nov-21 19:20 084 16.1
2017-Nov-21 19:05 084 16.1
2017-Nov-21 18:50 084 16.1
2017-Nov-21 18:34 082 16.1
2017-Nov-21 18:19 080
2017-Nov-21 18:04 078 16.1
2017-Nov-21 17:49 076 16.1
2017-Nov-21 17:34 024
2017-Nov-21 17:19 005 16.1
2017-Nov-21 17:04 336
2017-Nov-21 16:49 330 16.1
2017-Nov-21 16:34 331 16.1
2017-Nov-21 16:19 332 16.7
2017-Nov-21 16:04 331 16.7
2017-Nov-21 15:49 333 16.7
2017-Nov-21 15:34 330 17.2
2017-Nov-21 15:19 331
2017-Nov-21 15:04 330 17.2
2017-Nov-21 14:49 360 17.2
2017-Nov-21 14:34 342 0 gusting 6 17.8
2017-Nov-21 14:19 342 17.8
2017-Nov-21 14:04 325 0 gusting 4
2017-Nov-21 13:49 326 2 gusting 7 17.8
2017-Nov-21 13:34 330 2 gusting 8 17.8
2017-Nov-21 13:19 355 2 gusting 6 18.3
2017-Nov-21 13:04 104 19.4
2017-Nov-21 12:49 103
2017-Nov-21 12:34 103 20.0
2017-Nov-21 12:19 050
2017-Nov-21 12:04 344 19.4
2017-Nov-21 11:49 344 18.9
2017-Nov-21 11:34 341
2017-Nov-21 11:19 024 17.8
2017-Nov-21 11:04 307
2017-Nov-21 10:49 313 18.9
2017-Nov-21 10:34 263 18.9
2017-Nov-21 10:19 277 0 gusting 5 18.3
2017-Nov-21 10:04 267 18.3
2017-Nov-21 09:49 267
2017-Nov-21 09:35 245 17.8
2017-Nov-21 09:19 237 17.8
2017-Nov-21 09:04 236 17.8
2017-Nov-21 08:48 229 17.2
2017-Nov-21 08:33 231
2017-Nov-21 08:18 221 0 gusting 6 16.1
2017-Nov-21 08:04 226 2 gusting 5 16.1
2017-Nov-21 07:49 226 16.1
2017-Nov-21 07:33 227 16.1
2017-Nov-21 07:18 227
2017-Nov-21 07:03 227 15.0
2017-Nov-21 06:49 227
2017-Nov-21 06:33 223 1 gusting 6 13.9
2017-Nov-21 06:18 232 13.3
2017-Nov-21 06:03 223 13.3
2017-Nov-21 05:49 215 2 gusting 6 13.3
2017-Nov-21 05:33 217
2017-Nov-21 05:19 217 13.3
2017-Nov-21 05:03 360 3 gusting 6 13.3
2017-Nov-21 04:48 213 0 gusting 6 13.3
2017-Nov-21 04:33 219 2 gusting 6 12.8
2017-Nov-21 04:18 228 1 gusting 8
2017-Nov-21 04:03 252 13.3
2017-Nov-21 03:48 234 0 gusting 5 12.8
2017-Nov-21 03:36 252 0 gusting 6 12.8
2017-Nov-21 03:24 234 13.3
2017-Nov-21 03:03 240 0 gusting 7
2017-Nov-21 02:48 217 13.3
2017-Nov-21 02:33 257 12.8
2017-Nov-21 02:18 256 12.8
2017-Nov-21 02:03 263 12.2
2017-Nov-21 01:48 273
2017-Nov-21 01:33 267 12.2
2017-Nov-21 01:18 275 12.2
2017-Nov-21 01:03 266 12.2
2017-Nov-21 00:48 275 12.2
2017-Nov-21 00:36 275 12.2
2017-Nov-21 00:23 265
2017-Nov-21 00:03 267 12.2
2017-Nov-20 23:48 264 12.8
2017-Nov-20 23:33 263 12.8
2017-Nov-20 23:17 263
2017-Nov-20 23:03 263 12.8
2017-Nov-20 22:48 263
2017-Nov-20 22:32 264 12.8
2017-Nov-20 22:17 263 12.8
2017-Nov-20 22:02 261
2017-Nov-20 21:47 256 14.4
2017-Nov-20 21:32 323
2017-Nov-20 21:17 323 13.9
2017-Nov-20 21:02 323 13.9
2017-Nov-20 20:47 323 13.9
2017-Nov-20 20:32 323 13.9
2017-Nov-20 20:18 323
2017-Nov-20 20:02 323 15.0